ATLAS 5 CENTAUR DEB, 44690

Orbit data source: Space-Track

ATLAS 5 CENTAUR DEB, 44690 is space debris in HEO originally from a launch on Wed, 17 Oct 2018 UTC launched from the Air Force Eastern Test Range (AFETR). Debris objects in space refer to the collection of defunct objects orbiting the Earth. Examples of debris include non-operational satellites, rocket bodies, and fragments generated from explosions, collisions, or faulty payload assembly.

Loading next visibility...
Identifier
44690, 2018-079BC
Orbit
HEO
Country
Flag of USUS
Related business
Flag of USUnited Launch Alliance/Lockheed Martin (US)
Manufacturer
ULA Decatur
Mission
Spacecraft
Bus & Motor
Unknown
Mass
Unknown
Launch date (UTC)
2018-10-17 (8 years ago)
Launch vehicle
Unknown
Launch site
Air Force Eastern Test Range (AFETR)
Object type
Payload
Rocket body
Debris
Shape & HBR
Unknown shape, 1.1 m
Radar Cross Section
Medium (>0.1 m² and <1 m²)

Expand to show TLE details & history
Last TLE update: 1 month ago

TLE from 1 month ago
0 ATLAS 5 CENTAUR DEB
1 44690U 18079BC  26143.99801788 -.00000107  00000-0  00000-0 0  9993
2 44690  13.0160  38.7422 4417603 316.6032  16.0803  1.88496908 46649
Epoch: 2026-05-23T23:57Z
TLE epoch observation values (Epoch: 2026-05-23T23:57:08.744Z)
Latitude
0.00003°
Longitude
157.80501°
Altitude
10,496.259 km
Speed
5.731 km/s
True Right ascension
02h 34m 47s
True Declination
0° 00' 00"
Sunlit
Object was in daylight at epoch
Visualization orbit readout
Latitude
Unknown
Longitude
Unknown
Altitude
Unknown
Speed
Unknown
Apparent Right ascension
Unknown
Apparent Declination
Unknown
Sunlit
N/A
Visualization observer readout
Local Sidereal Time
21:34:22
Azimuth
Unknown
Elevation
Unknown
Doppler factor
Unknown
Orbital elements
Apogee altitude
33,535.774 km
Perigee altitude
9,076.256 km
Semi-major axis
27,684.152 km
Eccentricity
0.44176
Inclination
13.016°
RAAN
38.7422°
Arg. of periapsis
316.6032°
True anomaly
43.58182°
Mean anomaly
16.0803°
Eccentric anomaly
27.93948°
Mean motion
0.47119 °/min
Orbital period
764.02 mins
BSTAR
0
Loading maneuver chart data...
Computing Atmospheric mass density...

Documentation

Showing up to 5 results
|